Notices

What's New in latest Release from April 7th, 2021:

- Updated Glossary, including Speed of Maximum Gust, and Total Hourly Precipitation

- Updated national and regional climate services offices contacts and prices information

- Addition of station inventory lists for 1981-2010, 1971-2000, and 1961-1990 Normals.

If you haven't already, please take our survey and provide feedback about our website: https://eccc.sondage-survey.ca/f/LanguageSelection.aspx?s=442ca660-fcf1-47c0-95a9-59707d6fd709

Hourly Data Report for December 14, 2004

TORONTO CITY
ONTARIO

43°40'00.000" N
79°24'00.000" W
112.50 m
6158355
71508
XTO

Download Data

Hourly Data (December 2004)
Hourly Data Report for December 14, 2004
TIME
LST
Temp Definition
°C
Dew Point Definition
°C
Rel Hum Definition
%
Precip. Amount Definition
mm

Wind Dir Definition
10's deg

Wind Spd Definition
km/h
Visibility Definition
km
Stn Press Definition
kPa
Hmdx Definition


Wind Chill Definition


Weather Definition


00:00 -7.3 -11.3 73   LegendMM LegendMM LegendMM 100.20     LegendNANA
01:00 -8.1 -12.9 68   LegendMM LegendMM LegendMM 100.34     LegendNANA
02:00 -8.2 -13.0 68   LegendMM LegendMM LegendMM 100.43     LegendNANA
03:00 -8.5 -12.8 71   LegendMM LegendMM LegendMM 100.51     LegendNANA
04:00 -8.6 -12.9 71   LegendMM LegendMM LegendMM 100.61     LegendNANA
05:00 -8.7 -12.8 72   LegendMM LegendMM LegendMM 100.65     LegendNANA
06:00 -9.0 -12.7 74   LegendMM LegendMM LegendMM 100.74     LegendNANA
07:00 -9.0 -13.0 73   LegendMM LegendMM LegendMM 100.81     LegendNANA
08:00 -8.9 -12.5 75   LegendMM LegendMM LegendMM 100.87     LegendNANA
09:00 -8.4 -12.2 74   LegendMM LegendMM LegendMM 100.93     LegendNANA
10:00 -7.4 -12.6 66   LegendMM LegendMM LegendMM 100.99     LegendNANA
11:00 -6.7 -12.0 66   LegendMM LegendMM LegendMM 101.02     LegendNANA
12:00 -5.4 -10.9 65   LegendMM LegendMM LegendMM 101.00     LegendNANA
13:00 -4.8 -10.8 63   LegendMM LegendMM LegendMM 100.97     LegendNANA
14:00 -4.7 -10.4 64   LegendMM LegendMM LegendMM 101.01     LegendNANA
15:00 -4.7 -10.7 63   LegendMM LegendMM LegendMM 101.06     LegendNANA
16:00 -6.3 -13.3 58   LegendMM LegendMM LegendMM 101.14     LegendNANA
17:00 -6.7 -12.4 64   LegendMM LegendMM LegendMM 101.23     LegendNANA
18:00 -7.2 -10.0 80   LegendMM LegendMM LegendMM 101.28     LegendNANA
19:00 -6.5 -9.7 78   LegendMM LegendMM LegendMM 101.32     LegendNANA
20:00 -5.7 -9.9 72   LegendMM LegendMM LegendMM 101.35     LegendNANA
21:00 -5.6 -10.2 70   LegendMM LegendMM LegendMM 101.37     LegendNANA
22:00 -5.2 -10.0 69   LegendMM LegendMM LegendMM 101.38     LegendNANA
23:00 -4.8 -9.9 67   LegendMM LegendMM LegendMM 101.40     LegendNANA

Notes on Data Quality.

Legend

  • E = Estimated
  • M = Missing
  • NA = Not Available*
  • [empty] = Indicates an unobserved value
Date modified: